Location: Brno
(49.2000°N, 16.6330°E)
Time: 07:24:54
(UTC+02:00)

Tiros 1 despin weight - All Passes

Search period start: 26 July 2021 00:00
Search period end: 05 August 2021 00:00
Orbit: 593 x 642 km, 48.2° (Epoch: 25 July)

Date Brightness Start Highest point End Pass type
(mag) Time Alt. Az. Time Alt. Az. Time Alt. Az.
26 Jul - 16:24:15 10° SSW 16:28:20 30° SSE 16:32:25 10° E daylight
26 Jul - 18:04:50 10° WSW 18:09:30 69° SSE 18:14:08 10° E daylight
26 Jul - 19:46:19 10° W 19:51:00 77° S 19:55:38 10° ESE daylight
26 Jul - 21:27:58 10° W 21:32:18 40° SSW 21:36:35 10° SE visible
26 Jul - 23:11:19 10° WSW 23:12:56 12° SW 23:14:33 10° SSW visible
27 Jul - 15:01:13 10° S 15:03:39 14° SE 15:06:05 10° ESE daylight
27 Jul - 16:39:57 10° SW 16:44:24 44° SSE 16:48:51 10° E daylight
27 Jul - 18:21:03 10° W 18:25:45 78° S 18:30:24 10° E daylight
27 Jul - 20:02:36 10° W 20:07:15 65° SSW 20:11:49 10° ESE daylight
27 Jul - 21:44:27 10° W 21:48:19 26° SW 21:52:09 10° SSE visible
28 Jul - 15:15:51 10° SSW 15:19:32 23° SE 15:23:13 10° E daylight
28 Jul - 16:55:56 10° WSW 17:00:33 60° SSE 17:05:10 10° E daylight
28 Jul - 18:37:19 10° W 18:42:01 80° S 18:46:41 10° E daylight
28 Jul - 20:18:54 10° W 20:23:26 49° SSW 20:27:52 10° SE daylight
28 Jul - 22:01:20 10° W 22:04:14 17° SW 22:07:06 10° S visible
29 Jul - 15:31:16 10° SW 15:35:31 35° SSE 15:39:47 10° E daylight
29 Jul - 17:12:04 10° WSW 17:16:46 74° S 17:21:26 10° E daylight
29 Jul - 18:53:36 10° W 18:58:17 73° S 19:02:55 10° ESE daylight
29 Jul - 20:35:17 10° W 20:39:30 34° SSW 20:43:40 10° SE daylight
30 Jul - 14:07:42 10° S 14:10:45 17° SE 14:13:50 10° E daylight
30 Jul - 15:47:05 10° SW 15:51:37 50° SSE 15:56:09 10° E daylight
30 Jul - 17:28:19 10° W 17:33:02 80° S 17:37:42 10° E daylight
30 Jul - 19:09:53 10° W 19:14:30 59° SSW 19:19:04 10° ESE daylight
30 Jul - 20:51:53 10° W 20:55:29 22° SW 20:59:02 10° SSE daylight
31 Jul - 14:22:43 10° SSW 14:26:41 27° SSE 14:30:39 10° E daylight
31 Jul - 16:03:08 10° WSW 16:07:48 66° SSE 16:12:27 10° E daylight
31 Jul - 17:44:35 10° W 17:49:18 78° S 17:53:59 10° E daylight
31 Jul - 19:26:12 10° W 19:30:38 43° SSW 19:35:01 10° SE daylight
31 Jul - 21:09:07 10° WSW 21:11:21 13° SW 21:13:33 10° SSW visible
01 Aug - 13:00:04 10° SSE 13:02:02 12° SE 13:04:00 10° ESE daylight
01 Aug - 14:38:19 10° SW 14:42:43 41° SSE 14:47:07 10° E daylight
01 Aug - 16:19:20 10° WSW 16:24:02 77° S 16:28:43 10° E daylight
01 Aug - 18:00:52 10° W 18:05:33 68° SSW 18:10:11 10° ESE daylight
01 Aug - 19:42:39 10° W 19:46:41 29° SSW 19:50:40 10° SSE daylight
02 Aug - 13:14:23 10° S 13:17:53 21° SE 13:21:23 10° E daylight
02 Aug - 14:54:15 10° WSW 14:58:51 57° SSE 15:03:27 10° E daylight
02 Aug - 16:35:36 10° W 16:40:18 80° S 16:45:00 10° E daylight
02 Aug - 18:17:09 10° W 18:21:44 52° SSW 18:26:15 10° SE daylight
02 Aug - 19:59:24 10° W 20:02:37 18° SW 20:05:48 10° S daylight
03 Aug - 13:29:41 10° SSW 13:33:50 32° SSE 13:38:01 10° E daylight
03 Aug - 15:10:23 10° WSW 15:15:02 71° S 15:19:44 10° E daylight
03 Aug - 16:51:51 10° W 16:56:34 75° S 17:01:15 10° ESE daylight
03 Aug - 18:33:31 10° W 18:37:50 37° SSW 18:42:06 10° SE daylight
03 Aug - 20:17:32 10° WSW 20:18:25 10° SW 20:19:19 10° SW daylight
04 Aug - 12:06:23 10° S 12:09:08 16° SE 12:11:53 10° ESE daylight
04 Aug - 13:45:26 10° SW 13:49:54 47° SSE 13:54:25 10° E daylight
04 Aug - 15:26:36 10° W 15:31:18 80° S 15:36:00 10° E daylight
04 Aug - 17:08:08 10° W 17:12:47 62° SSW 17:17:25 10° ESE daylight
04 Aug - 18:50:03 10° W 18:53:50 24° SW 18:57:35 10° SSE daylight
